Time,TemperatureF,DewpointF,PressureIn,WindDirection,WindDirectionDegrees,WindSpeedMPH,WindSpeedGustMPH,Humidity,HourlyPrecipIn,Conditions,Clouds,dailyrainin,SolarRadiationWatts/m^2,SoftwareType,DateUTC
2013-05-23 00:02:00,50.7,42.0,29.83,ENE,70,29.0,-999.0,72,-99.99,,,0.00,0,weatherlink.com 1.10,2013-05-23 06:02:00,
2013-05-23 00:17:00,50.1,42.0,29.82,ENE,67,30.0,-999.0,74,-99.99,,,0.00,0,weatherlink.com 1.10,2013-05-23 06:17:00,
2013-05-23 00:32:00,49.5,42.0,29.82,ENE,68,29.0,-999.0,75,-99.99,,,0.00,0,weatherlink.com 1.10,2013-05-23 06:32:00,
2013-05-23 00:47:00,49.0,42.0,29.82,ENE,62,27.0,-999.0,76,-99.99,,,0.00,0,weatherlink.com 1.10,2013-05-23 06:47:00,
2013-05-23 01:02:00,48.4,42.0,29.82,NE,54,20.0,-999.0,77,-99.99,,,0.00,0,weatherlink.com 1.10,2013-05-23 07:02:00,
2013-05-23 01:17:00,48.1,42.0,29.83,NE,55,18.0,-999.0,78,-99.99,,,0.00,0,weatherlink.com 1.10,2013-05-23 07:17:00,
2013-05-23 01:32:00,48.0,41.0,29.82,ENE,62,24.0,-999.0,78,-99.99,,,0.00,0,weatherlink.com 1.10,2013-05-23 07:32:00,
2013-05-23 01:47:00,47.7,41.0,29.82,ENE,57,24.0,-999.0,78,-99.99,,,0.00,0,weatherlink.com 1.10,2013-05-23 07:47:00,
2013-05-23 02:02:00,47.5,41.0,29.83,ENE,67,17.0,-999.0,79,-99.99,,,0.00,0,weatherlink.com 1.10,2013-05-23 08:02:00,
2013-05-23 02:17:00,47.3,41.0,29.83,NE,56,10.0,-999.0,79,-99.99,,,0.00,0,weatherlink.com 1.10,2013-05-23 08:17:00,
2013-05-23 02:32:00,47.1,41.0,29.84,ENE,73,23.0,-999.0,80,-99.99,,,0.00,0,weatherlink.com 1.10,2013-05-23 08:32:00,
2013-05-23 02:47:00,47.2,41.0,29.84,NE,46,18.0,-999.0,80,-99.99,,,0.00,0,weatherlink.com 1.10,2013-05-23 08:47:00,
2013-05-23 03:02:00,47.1,41.0,29.84,ENE,63,18.0,-999.0,80,-99.99,,,0.00,0,weatherlink.com 1.10,2013-05-23 09:02:00,
2013-05-23 03:17:00,46.9,41.0,29.85,NE,49,3.0,-999.0,81,-99.99,,,0.00,0,weatherlink.com 1.10,2013-05-23 09:17:00,
2013-05-23 03:32:00,46.7,41.0,29.85,NE,44,9.0,-999.0,81,-99.99,,,0.00,0,weatherlink.com 1.10,2013-05-23 09:32:00,
2013-05-23 03:47:00,46.4,41.0,29.85,ENE,57,8.0,-999.0,82,-99.99,,,0.00,0,weatherlink.com 1.10,2013-05-23 09:47:00,
2013-05-23 04:02:00,45.9,41.0,29.86,ENE,60,0.0,-999.0,82,-99.99,,,0.00,0,weatherlink.com 1.10,2013-05-23 10:02:00,
2013-05-23 04:17:00,45.7,41.0,29.86,ENE,58,0.0,-999.0,82,-99.99,,,0.00,0,weatherlink.com 1.10,2013-05-23 10:17:00,
2013-05-23 04:32:00,45.6,41.0,29.87,NE,39,0.0,-999.0,83,-99.99,,,0.00,0,weatherlink.com 1.10,2013-05-23 10:32:00,
2013-05-23 04:47:00,45.5,41.0,29.87,North,355,1.0,-999.0,83,-99.99,,,0.00,0,weatherlink.com 1.10,2013-05-23 10:47:00,
2013-05-23 05:02:00,45.3,40.0,29.87,NNE,20,0.0,-999.0,83,-99.99,,,0.00,0,weatherlink.com 1.10,2013-05-23 11:02:00,
2013-05-23 05:17:00,45.1,40.0,29.87,North,360,0.0,-999.0,83,-99.99,,,0.00,0,weatherlink.com 1.10,2013-05-23 11:17:00,
2013-05-23 05:32:00,44.9,40.0,29.87,North,5,0.0,-999.0,84,-99.99,,,0.00,0,weatherlink.com 1.10,2013-05-23 11:32:00,
2013-05-23 05:47:00,44.7,41.0,29.87,NNE,30,1.0,-999.0,85,-99.99,,,0.00,0,weatherlink.com 1.10,2013-05-23 11:47:00,
2013-05-23 06:02:00,44.5,41.0,29.86,NE,44,6.0,-999.0,86,-99.99,,,0.00,11,weatherlink.com 1.10,2013-05-23 12:02:00,
2013-05-23 06:17:00,44.4,41.0,29.86,ENE,69,10.0,-999.0,86,-99.99,,,0.00,18,weatherlink.com 1.10,2013-05-23 12:17:00,
2013-05-23 06:32:00,44.6,41.0,29.87,NE,53,5.0,-999.0,86,-99.99,,,0.00,25,weatherlink.com 1.10,2013-05-23 12:32:00,
2013-05-23 06:47:00,44.7,41.0,29.87,NE,38,7.0,-999.0,86,-99.99,,,0.00,33,weatherlink.com 1.10,2013-05-23 12:47:00,
2013-05-23 07:02:00,44.8,41.0,29.88,East,81,0.0,-999.0,86,-99.99,,,0.00,40,weatherlink.com 1.10,2013-05-23 13:02:00,
2013-05-23 07:17:00,44.9,41.0,29.89,East,81,0.0,-999.0,86,-99.99,,,0.00,67,weatherlink.com 1.10,2013-05-23 13:17:00,
2013-05-23 07:32:00,45.9,42.0,29.88,NE,49,0.0,-999.0,86,-99.99,,,0.00,179,weatherlink.com 1.10,2013-05-23 13:32:00,
2013-05-23 07:47:00,46.9,43.0,29.88,East,95,0.0,-999.0,85,-99.99,,,0.00,230,weatherlink.com 1.10,2013-05-23 13:47:00,
2013-05-23 08:02:00,48.1,43.0,29.88,ENE,68,0.0,-999.0,83,-99.99,,,0.00,135,weatherlink.com 1.10,2013-05-23 14:02:00,
2013-05-23 08:17:00,48.7,43.0,29.88,ENE,68,0.0,-999.0,80,-99.99,,,0.00,127,weatherlink.com 1.10,2013-05-23 14:17:00,
2013-05-23 08:32:00,48.9,43.0,29.88,ENE,68,0.0,-999.0,80,-99.99,,,0.00,146,weatherlink.com 1.10,2013-05-23 14:32:00,
2013-05-23 08:48:00,49.6,43.0,29.88,ENE,68,0.0,-999.0,79,-99.99,,,0.00,225,weatherlink.com 1.10,2013-05-23 14:48:00,
2013-05-23 09:03:00,50.4,43.0,29.88,ENE,69,0.0,-999.0,76,-99.99,,,0.00,306,weatherlink.com 1.10,2013-05-23 15:03:00,
2013-05-23 09:18:00,52.4,45.0,29.87,North,5,0.0,-999.0,75,-99.99,,,0.00,633,weatherlink.com 1.10,2013-05-23 15:18:00,
2013-05-23 09:33:00,53.1,44.0,29.87,WSW,250,0.0,-999.0,72,-99.99,,,0.00,645,weatherlink.com 1.10,2013-05-23 15:33:00,
2013-05-23 09:48:00,54.7,45.0,29.86,NNW,347,0.0,-999.0,70,-99.99,,,0.00,621,weatherlink.com 1.10,2013-05-23 15:48:00,
2013-05-23 10:03:00,56.8,46.0,29.85,WNW,299,0.0,-999.0,67,-99.99,,,0.00,485,weatherlink.com 1.10,2013-05-23 16:03:00,
2013-05-23 10:18:00,58.2,46.0,29.85,West,278,0.0,-999.0,64,-99.99,,,0.00,65,weatherlink.com 1.10,2013-05-23 16:18:00,
2013-05-23 10:33:00,56.0,44.0,29.85,SW,214,6.0,-999.0,64,-99.99,,,0.00,58,weatherlink.com 1.10,2013-05-23 16:33:00,
2013-05-23 10:48:00,56.2,44.0,29.84,East,97,7.0,-999.0,65,-99.99,,,0.00,60,weatherlink.com 1.10,2013-05-23 16:48:00,
2013-05-23 11:03:00,58.0,44.0,29.83,West,266,0.0,-999.0,61,-99.99,,,0.00,65,weatherlink.com 1.10,2013-05-23 17:03:00,
2013-05-23 11:18:00,58.9,44.0,29.82,SE,124,0.0,-999.0,59,-99.99,,,0.00,62,weatherlink.com 1.10,2013-05-23 17:18:00,
2013-05-23 11:33:00,59.9,45.0,29.82,NW,319,0.0,-999.0,58,-99.99,,,0.00,60,weatherlink.com 1.10,2013-05-23 17:33:00,
2013-05-23 11:48:00,62.0,44.0,29.81,SW,229,0.0,-999.0,53,-99.99,,,0.00,56,weatherlink.com 1.10,2013-05-23 17:48:00,
2013-05-23 12:03:00,60.1,44.0,29.80,SE,139,0.0,-999.0,56,-99.99,,,0.00,58,weatherlink.com 1.10,2013-05-23 18:03:00,
2013-05-23 12:18:00,62.2,46.0,29.79,WNW,288,3.0,-999.0,55,-99.99,,,0.00,227,weatherlink.com 1.10,2013-05-23 18:18:00,
2013-05-23 12:33:00,65.4,46.0,29.78,NNW,342,0.0,-999.0,50,-99.99,,,0.00,923,weatherlink.com 1.10,2013-05-23 18:33:00,
2013-05-23 12:48:00,67.0,45.0,29.77,North,10,0.0,-999.0,46,-99.99,,,0.00,933,weatherlink.com 1.10,2013-05-23 18:48:00,
2013-05-23 13:03:00,67.6,45.0,29.76,West,278,3.0,-999.0,45,-99.99,,,0.00,954,weatherlink.com 1.10,2013-05-23 19:03:00,
2013-05-23 13:18:00,68.3,45.0,29.75,SW,233,0.0,-999.0,43,-99.99,,,0.00,947,weatherlink.com 1.10,2013-05-23 19:18:00,
2013-05-23 13:34:00,69.3,45.0,29.74,NNE,15,0.0,-999.0,42,-99.99,,,0.00,947,weatherlink.com 1.10,2013-05-23 19:34:00,
2013-05-23 13:49:00,70.6,47.0,29.73,North,355,0.0,-999.0,43,-99.99,,,0.00,928,weatherlink.com 1.10,2013-05-23 19:49:00,
2013-05-23 14:04:00,71.6,47.0,29.72,NNE,16,0.0,-999.0,42,-99.99,,,0.00,947,weatherlink.com 1.10,2013-05-23 20:04:00,
2013-05-23 14:19:00,72.4,47.0,29.71,SW,228,0.0,-999.0,41,-99.99,,,0.00,928,weatherlink.com 1.10,2013-05-23 20:19:00,
2013-05-23 14:34:00,71.2,44.0,29.70,SW,225,0.0,-999.0,38,-99.99,,,0.00,916,weatherlink.com 1.10,2013-05-23 20:34:00,
2013-05-23 14:49:00,73.1,45.0,29.69,NW,304,0.0,-999.0,36,-99.99,,,0.00,925,weatherlink.com 1.10,2013-05-23 20:49:00,
2013-05-23 15:04:00,73.8,45.0,29.69,WSW,245,7.0,-999.0,36,-99.99,,,0.00,925,weatherlink.com 1.10,2013-05-23 21:04:00,
2013-05-23 15:19:00,74.2,45.0,29.68,NW,323,0.0,-999.0,35,-99.99,,,0.00,870,weatherlink.com 1.10,2013-05-23 21:19:00,
2013-05-23 15:34:00,75.1,45.0,29.67,NW,319,0.0,-999.0,34,-99.99,,,0.00,830,weatherlink.com 1.10,2013-05-23 21:34:00,
2013-05-23 15:49:00,76.3,43.0,29.66,SW,226,0.0,-999.0,30,-99.99,,,0.00,802,weatherlink.com 1.10,2013-05-23 21:49:00,
2013-05-23 16:04:00,76.3,43.0,29.65,NNW,348,3.0,-999.0,31,-99.99,,,0.00,773,weatherlink.com 1.10,2013-05-23 22:04:00,
2013-05-23 16:19:00,77.0,46.0,29.65,NNE,14,0.0,-999.0,33,-99.99,,,0.00,726,weatherlink.com 1.10,2013-05-23 22:19:00,
2013-05-23 16:34:00,77.5,45.0,29.64,WNW,286,0.0,-999.0,31,-99.99,,,0.00,694,weatherlink.com 1.10,2013-05-23 22:34:00,
2013-05-23 16:49:00,77.2,43.0,29.63,NNE,13,0.0,-999.0,29,-99.99,,,0.00,659,weatherlink.com 1.10,2013-05-23 22:49:00,
2013-05-23 17:04:00,77.8,42.0,29.63,NE,44,1.0,-999.0,28,-99.99,,,0.00,619,weatherlink.com 1.10,2013-05-23 23:04:00,
2013-05-23 17:19:00,77.5,38.0,29.62,SSE,159,2.0,-999.0,24,-99.99,,,0.00,589,weatherlink.com 1.10,2013-05-23 23:19:00,
2013-05-23 17:34:00,76.9,37.0,29.61,SE,138,7.0,-999.0,24,-99.99,,,0.00,533,weatherlink.com 1.10,2013-05-23 23:34:00,
2013-05-23 17:49:00,77.4,39.0,29.61,South,185,3.0,-999.0,25,-99.99,,,0.00,483,weatherlink.com 1.10,2013-05-23 23:49:00,
2013-05-23 18:04:00,77.6,36.0,29.60,South,172,4.0,-999.0,22,-99.99,,,0.00,457,weatherlink.com 1.10,2013-05-24 00:04:00,
2013-05-23 18:19:00,77.6,33.0,29.59,SSW,195,5.0,-999.0,20,-99.99,,,0.00,376,weatherlink.com 1.10,2013-05-24 00:19:00,
2013-05-23 18:34:00,78.0,37.0,29.59,SSW,207,2.0,-999.0,23,-99.99,,,0.00,376,weatherlink.com 1.10,2013-05-24 00:34:00,
2013-05-23 18:49:00,78.2,34.0,29.59,South,180,7.0,-999.0,20,-99.99,,,0.00,281,weatherlink.com 1.10,2013-05-24 00:49:00,
2013-05-23 19:04:00,78.0,31.0,29.58,South,182,11.0,-999.0,18,-99.99,,,0.00,255,weatherlink.com 1.10,2013-05-24 01:04:00,
2013-05-23 19:19:00,77.1,33.0,29.58,SW,214,7.0,-999.0,20,-99.99,,,0.00,72,weatherlink.com 1.10,2013-05-24 01:19:00,
2013-05-23 19:34:00,75.9,41.0,29.59,West,261,9.0,-999.0,29,-99.99,,,0.00,90,weatherlink.com 1.10,2013-05-24 01:34:00,
2013-05-23 19:49:00,73.1,42.0,29.59,WNW,300,9.0,-999.0,33,-99.99,,,0.00,46,weatherlink.com 1.10,2013-05-24 01:49:00,
2013-05-23 20:04:00,71.7,43.0,29.59,WNW,285,1.0,-999.0,35,-99.99,,,0.00,33,weatherlink.com 1.10,2013-05-24 02:04:00,
2013-05-23 20:20:00,71.3,42.0,29.60,WNW,286,0.0,-999.0,35,-99.99,,,0.00,21,weatherlink.com 1.10,2013-05-24 02:20:00,
2013-05-23 20:34:00,69.3,44.0,29.60,NNW,336,0.0,-999.0,41,-99.99,,,0.00,0,weatherlink.com 1.10,2013-05-24 02:34:00,
2013-05-23 20:49:00,67.3,43.0,29.60,West,281,3.0,-999.0,42,-99.99,,,0.00,0,weatherlink.com 1.10,2013-05-24 02:49:00,
2013-05-23 21:05:00,66.5,43.0,29.61,WNW,288,4.0,-999.0,42,-99.99,,,0.00,0,weatherlink.com 1.10,2013-05-24 03:05:00,
2013-05-23 21:20:00,65.7,42.0,29.62,West,279,4.0,-999.0,42,-99.99,,,0.00,0,weatherlink.com 1.10,2013-05-24 03:20:00,
2013-05-23 21:35:00,64.7,42.0,29.62,WNW,292,7.0,-999.0,44,-99.99,,,0.00,0,weatherlink.com 1.10,2013-05-24 03:35:00,
2013-05-23 21:50:00,64.2,37.0,29.63,NW,317,7.0,-999.0,37,-99.99,,,0.00,0,weatherlink.com 1.10,2013-05-24 03:50:00,
2013-05-23 22:05:00,62.7,35.0,29.64,WNW,300,16.0,-999.0,35,-99.99,,,0.00,0,weatherlink.com 1.10,2013-05-24 04:05:00,
2013-05-23 22:20:00,62.1,35.0,29.65,NW,305,20.0,-999.0,36,-99.99,,,0.00,0,weatherlink.com 1.10,2013-05-24 04:20:00,
2013-05-23 22:35:00,61.6,36.0,29.66,NW,313,13.0,-999.0,38,-99.99,,,0.00,0,weatherlink.com 1.10,2013-05-24 04:35:00,
2013-05-23 22:50:00,61.4,35.0,29.67,NW,315,12.0,-999.0,37,-99.99,,,0.00,0,weatherlink.com 1.10,2013-05-24 04:50:00,
2013-05-23 23:05:00,60.7,35.0,29.68,NW,305,3.0,-999.0,39,-99.99,,,0.00,0,weatherlink.com 1.10,2013-05-24 05:05:00,
2013-05-23 23:20:00,59.9,35.0,29.67,NW,323,9.0,-999.0,40,-99.99,,,0.00,0,weatherlink.com 1.10,2013-05-24 05:20:00,
2013-05-23 23:35:00,58.9,37.0,29.69,NW,312,1.0,-999.0,44,-99.99,,,0.00,0,weatherlink.com 1.10,2013-05-24 05:35:00,
2013-05-23 23:50:00,58.2,44.0,29.68,North,5,7.0,-999.0,59,-99.99,,,0.00,0,weatherlink.com 1.10,2013-05-24 05:50:00,